Time,TemperatureF,DewpointF,PressureIn,WindDirection,WindDirectionDegrees,WindSpeedMPH,WindSpeedGustMPH,Humidity,HourlyPrecipIn,Conditions,Clouds,dailyrainin,SoftwareType,DateUTC
2013-07-18 00:00:00,77.6,68.8,30.10,NE,45,0.0,0.0,74,0.00,,,0.00,WUHU21623XXSP,2013-07-18 04:00:00,
2013-07-18 00:01:00,77.6,68.8,30.10,NE,45,0.0,0.0,74,0.00,,,0.00,WUHU21623XXSP,2013-07-18 04:01:00,
2013-07-18 00:06:00,77.6,69.2,30.10,NE,45,0.0,0.0,75,0.00,,,0.00,WUHU21623XXSP,2013-07-18 04:06:00,
2013-07-18 00:11:00,77.4,69.0,30.09,NE,45,0.0,0.0,75,0.00,,,0.00,WUHU21623XXSP,2013-07-18 04:11:00,
2013-07-18 00:16:00,77.4,69.0,30.10,NE,45,0.0,0.0,75,0.00,,,0.00,WUHU21623XXSP,2013-07-18 04:16:00,
2013-07-18 00:21:00,77.4,69.0,30.10,NE,45,0.0,0.0,75,0.00,,,0.00,WUHU21623XXSP,2013-07-18 04:21:00,
2013-07-18 00:26:00,77.4,69.0,30.10,NE,45,0.0,0.0,75,0.00,,,0.00,WUHU21623XXSP,2013-07-18 04:26:00,
2013-07-18 00:31:00,77.4,69.0,30.10,NE,45,0.0,0.0,75,0.00,,,0.00,WUHU21623XXSP,2013-07-18 04:31:00,
2013-07-18 00:36:00,77.2,68.8,30.10,NE,45,0.0,0.0,75,0.00,,,0.00,WUHU21623XXSP,2013-07-18 04:36:00,
2013-07-18 00:41:00,77.2,68.8,30.10,NE,45,0.0,0.0,75,0.00,,,0.00,WUHU21623XXSP,2013-07-18 04:41:00,
2013-07-18 00:46:00,77.2,68.8,30.09,NE,45,0.0,0.0,75,0.00,,,0.00,WUHU21623XXSP,2013-07-18 04:46:00,
2013-07-18 00:51:00,77.2,69.2,30.09,NE,45,0.0,0.0,76,0.00,,,0.00,WUHU21623XXSP,2013-07-18 04:51:00,
2013-07-18 00:56:00,77.1,69.1,30.09,NE,45,0.0,0.0,76,0.00,,,0.00,WUHU21623XXSP,2013-07-18 04:56:00,
2013-07-18 01:01:00,77.1,68.7,30.09,NE,45,0.0,0.0,75,0.00,,,0.00,WUHU21623XXSP,2013-07-18 05:01:00,
2013-07-18 01:06:00,76.9,68.9,30.09,NE,45,0.0,0.0,76,0.00,,,0.00,WUHU21623XXSP,2013-07-18 05:06:00,
2013-07-18 01:11:00,76.9,68.9,30.09,NE,45,0.0,0.0,76,0.00,,,0.00,WUHU21623XXSP,2013-07-18 05:11:00,
2013-07-18 01:16:00,76.7,68.7,30.09,NE,45,0.0,0.0,76,0.00,,,0.00,WUHU21623XXSP,2013-07-18 05:16:00,
2013-07-18 01:21:00,76.5,68.5,30.09,NE,45,0.0,0.0,76,0.00,,,0.00,WUHU21623XXSP,2013-07-18 05:21:00,
2013-07-18 01:26:00,76.5,68.5,30.09,NE,45,0.0,0.0,76,0.00,,,0.00,WUHU21623XXSP,2013-07-18 05:26:00,
2013-07-18 01:31:00,76.5,68.5,30.09,NE,45,0.0,0.0,76,0.00,,,0.00,WUHU21623XXSP,2013-07-18 05:31:00,
2013-07-18 01:36:00,76.5,68.5,30.09,NE,45,0.0,0.0,76,0.00,,,0.00,WUHU21623XXSP,2013-07-18 05:36:00,
2013-07-18 01:41:00,76.5,68.5,30.09,NE,45,0.0,0.0,76,0.00,,,0.00,WUHU21623XXSP,2013-07-18 05:41:00,
2013-07-18 01:46:00,76.5,68.9,30.08,NE,45,0.0,0.0,77,0.00,,,0.00,WUHU21623XXSP,2013-07-18 05:46:00,
2013-07-18 01:51:00,76.3,68.7,30.08,NE,45,0.0,0.0,77,0.00,,,0.00,WUHU21623XXSP,2013-07-18 05:51:00,
2013-07-18 01:56:00,76.3,68.7,30.08,NE,45,0.0,0.0,77,0.00,,,0.00,WUHU21623XXSP,2013-07-18 05:56:00,
2013-07-18 02:01:00,76.3,68.7,30.08,NE,45,0.0,0.0,77,0.00,,,0.00,WUHU21623XXSP,2013-07-18 06:01:00,
2013-07-18 02:06:00,76.3,68.7,30.08,NE,45,0.0,0.0,77,0.00,,,0.00,WUHU21623XXSP,2013-07-18 06:06:00,
2013-07-18 02:11:00,76.2,68.6,30.08,NE,45,0.0,0.0,77,0.00,,,0.00,WUHU21623XXSP,2013-07-18 06:11:00,
2013-07-18 02:16:00,76.0,68.4,30.08,NE,45,0.0,0.0,77,0.00,,,0.00,WUHU21623XXSP,2013-07-18 06:16:00,
2013-07-18 02:21:00,76.0,68.4,30.08,NE,45,0.0,0.0,77,0.00,,,0.00,WUHU21623XXSP,2013-07-18 06:21:00,
2013-07-18 02:26:00,76.0,68.8,30.08,NE,45,0.0,0.0,78,0.00,,,0.00,WUHU21623XXSP,2013-07-18 06:26:00,
2013-07-18 02:31:00,76.0,68.8,30.08,NE,45,0.0,0.0,78,0.00,,,0.00,WUHU21623XXSP,2013-07-18 06:31:00,
2013-07-18 02:36:00,76.0,68.8,30.07,NE,45,0.0,0.0,78,0.00,,,0.00,WUHU21623XXSP,2013-07-18 06:36:00,
2013-07-18 02:41:00,75.8,68.6,30.07,NE,45,0.0,0.0,78,0.00,,,0.00,WUHU21623XXSP,2013-07-18 06:41:00,
2013-07-18 02:46:00,75.8,68.6,30.07,NW,315,0.0,0.0,78,0.00,,,0.00,WUHU21623XXSP,2013-07-18 06:46:00,
2013-07-18 02:51:00,75.8,68.6,30.07,NW,315,0.0,0.0,78,0.00,,,0.00,WUHU21623XXSP,2013-07-18 06:51:00,
2013-07-18 02:56:00,75.8,68.6,30.07,NW,315,0.0,0.0,78,0.00,,,0.00,WUHU21623XXSP,2013-07-18 06:56:00,
2013-07-18 03:01:00,75.8,68.6,30.07,NW,315,0.0,0.0,78,0.00,,,0.00,WUHU21623XXSP,2013-07-18 07:01:00,
2013-07-18 03:06:00,75.8,68.6,30.07,NW,315,0.0,0.0,78,0.00,,,0.00,WUHU21623XXSP,2013-07-18 07:06:00,
2013-07-18 03:11:00,75.8,68.6,30.07,NW,315,0.0,0.0,78,0.00,,,0.00,WUHU21623XXSP,2013-07-18 07:11:00,
2013-07-18 03:16:00,75.8,68.6,30.07,NW,315,0.0,0.0,78,0.00,,,0.00,WUHU21623XXSP,2013-07-18 07:16:00,
2013-07-18 03:21:00,75.8,68.6,30.07,NW,315,0.0,0.0,78,0.00,,,0.00,WUHU21623XXSP,2013-07-18 07:21:00,
2013-07-18 03:26:00,75.6,68.4,30.06,NW,315,0.0,0.0,78,0.00,,,0.00,WUHU21623XXSP,2013-07-18 07:26:00,
2013-07-18 03:31:00,75.6,68.4,30.06,NW,315,0.0,0.0,78,0.00,,,0.00,WUHU21623XXSP,2013-07-18 07:31:00,
2013-07-18 03:36:00,75.6,68.4,30.06,NW,315,0.0,0.0,78,0.00,,,0.00,WUHU21623XXSP,2013-07-18 07:36:00,
2013-07-18 03:41:00,75.6,68.4,30.06,NW,315,0.0,0.0,78,0.00,,,0.00,WUHU21623XXSP,2013-07-18 07:41:00,
2013-07-18 03:46:00,75.6,68.4,30.06,NW,315,0.0,0.0,78,0.00,,,0.00,WUHU21623XXSP,2013-07-18 07:46:00,
2013-07-18 03:51:00,75.6,68.4,30.06,NW,315,0.0,0.0,78,0.00,,,0.00,WUHU21623XXSP,2013-07-18 07:51:00,
2013-07-18 03:56:00,75.6,68.4,30.06,NW,315,0.0,0.0,78,0.00,,,0.00,WUHU21623XXSP,2013-07-18 07:56:00,
2013-07-18 04:01:00,75.6,68.4,30.06,NW,315,0.0,0.0,78,0.00,,,0.00,WUHU21623XXSP,2013-07-18 08:01:00,
2013-07-18 04:06:00,75.6,68.4,30.06,NW,315,0.0,0.0,78,0.00,,,0.00,WUHU21623XXSP,2013-07-18 08:06:00,
2013-07-18 04:11:00,75.6,68.4,30.06,NW,315,0.0,0.0,78,0.00,,,0.00,WUHU21623XXSP,2013-07-18 08:11:00,
2013-07-18 04:16:00,75.6,68.4,30.06,NW,315,0.0,0.0,78,0.00,,,0.00,WUHU21623XXSP,2013-07-18 08:16:00,
2013-07-18 04:21:00,75.6,68.4,30.06,NW,315,0.0,0.0,78,0.00,,,0.00,WUHU21623XXSP,2013-07-18 08:21:00,
2013-07-18 04:26:00,75.6,68.4,30.06,NW,315,0.0,0.0,78,0.00,,,0.00,WUHU21623XXSP,2013-07-18 08:26:00,
2013-07-18 04:31:00,75.6,68.4,30.06,NW,315,0.0,0.0,78,0.00,,,0.00,WUHU21623XXSP,2013-07-18 08:31:00,
2013-07-18 04:36:00,75.6,68.4,30.06,NW,315,0.0,0.0,78,0.00,,,0.00,WUHU21623XXSP,2013-07-18 08:36:00,
2013-07-18 04:41:00,75.8,68.6,30.06,NW,315,0.0,0.0,78,0.00,,,0.00,WUHU21623XXSP,2013-07-18 08:41:00,
2013-07-18 04:46:00,75.8,68.6,30.06,NW,315,0.0,0.0,78,0.00,,,0.00,WUHU21623XXSP,2013-07-18 08:46:00,
2013-07-18 04:51:00,75.8,68.6,30.06,NW,315,0.0,0.0,78,0.00,,,0.00,WUHU21623XXSP,2013-07-18 08:51:00,
2013-07-18 04:56:00,75.8,68.6,30.06,NW,315,0.0,0.0,78,0.00,,,0.00,WUHU21623XXSP,2013-07-18 08:56:00,
2013-07-18 05:01:00,75.8,68.6,30.06,NW,315,0.0,0.0,78,0.00,,,0.00,WUHU21623XXSP,2013-07-18 09:01:00,
2013-07-18 05:06:00,75.8,68.6,30.05,NW,315,0.0,0.0,78,0.00,,,0.00,WUHU21623XXSP,2013-07-18 09:06:00,
2013-07-18 05:11:00,75.6,68.4,30.05,NW,315,0.0,0.0,78,0.00,,,0.00,WUHU21623XXSP,2013-07-18 09:11:00,
2013-07-18 05:16:00,75.6,68.7,30.06,NW,315,0.0,0.0,79,0.00,,,0.00,WUHU21623XXSP,2013-07-18 09:16:00,
2013-07-18 05:21:00,75.6,68.7,30.06,NW,315,0.0,0.0,79,0.00,,,0.00,WUHU21623XXSP,2013-07-18 09:21:00,
2013-07-18 05:26:00,75.6,68.7,30.06,NW,315,0.0,0.0,79,0.00,,,0.00,WUHU21623XXSP,2013-07-18 09:26:00,
2013-07-18 05:31:00,75.6,68.7,30.06,NW,315,0.0,0.0,79,0.00,,,0.00,WUHU21623XXSP,2013-07-18 09:31:00,
2013-07-18 05:36:00,75.6,68.7,30.06,NW,315,0.0,0.0,79,0.00,,,0.00,WUHU21623XXSP,2013-07-18 09:36:00,
2013-07-18 05:41:00,75.6,68.7,30.06,NW,315,0.0,0.0,79,0.00,,,0.00,WUHU21623XXSP,2013-07-18 09:41:00,
2013-07-18 05:46:00,75.4,68.5,30.06,NW,315,0.0,0.0,79,0.00,,,0.00,WUHU21623XXSP,2013-07-18 09:46:00,
2013-07-18 05:51:00,75.4,68.5,30.06,WNW,292,0.0,0.0,79,0.00,,,0.00,WUHU21623XXSP,2013-07-18 09:51:00,
2013-07-18 05:56:00,75.4,68.5,30.06,WNW,292,0.0,0.0,79,0.00,,,0.00,WUHU21623XXSP,2013-07-18 09:56:00,
2013-07-18 06:01:00,75.4,68.5,30.06,WNW,292,0.0,0.0,79,0.00,,,0.00,WUHU21623XXSP,2013-07-18 10:01:00,
2013-07-18 06:06:00,75.6,68.7,30.06,WNW,292,0.0,0.0,79,0.00,,,0.00,WUHU21623XXSP,2013-07-18 10:06:00,
2013-07-18 06:11:00,75.4,68.5,30.06,WNW,292,0.0,0.0,79,0.00,,,0.00,WUHU21623XXSP,2013-07-18 10:11:00,
2013-07-18 06:16:00,75.6,69.1,30.06,NW,315,0.0,0.0,80,0.00,,,0.00,WUHU21623XXSP,2013-07-18 10:16:00,
2013-07-18 06:21:00,75.6,69.1,30.06,NW,315,0.0,0.0,80,0.00,,,0.00,WUHU21623XXSP,2013-07-18 10:21:00,
2013-07-18 06:26:00,75.6,69.1,30.06,NW,315,0.0,0.0,80,0.00,,,0.00,WUHU21623XXSP,2013-07-18 10:26:00,
2013-07-18 06:31:00,75.6,69.1,30.06,NW,315,0.0,0.0,80,0.00,,,0.00,WUHU21623XXSP,2013-07-18 10:31:00,
2013-07-18 06:36:00,75.6,69.1,30.06,WNW,292,0.0,0.0,80,0.00,,,0.00,WUHU21623XXSP,2013-07-18 10:36:00,
2013-07-18 06:41:00,75.6,69.1,30.06,NW,315,0.0,0.0,80,0.00,,,0.00,WUHU21623XXSP,2013-07-18 10:41:00,
2013-07-18 06:46:00,75.8,69.3,30.07,West,270,0.0,0.0,80,0.00,,,0.00,WUHU21623XXSP,2013-07-18 10:46:00,
2013-07-18 06:51:00,76.0,69.5,30.07,West,270,0.0,0.0,80,0.00,,,0.00,WUHU21623XXSP,2013-07-18 10:51:00,
2013-07-18 06:56:00,76.0,69.5,30.07,West,270,0.0,0.0,80,0.00,,,0.00,WUHU21623XXSP,2013-07-18 10:56:00,
2013-07-18 07:01:00,76.3,69.8,30.07,West,270,0.0,0.0,80,0.00,,,0.00,WUHU21623XXSP,2013-07-18 11:01:00,
2013-07-18 07:06:00,76.5,70.0,30.06,West,270,0.0,0.0,80,0.00,,,0.00,WUHU21623XXSP,2013-07-18 11:06:00,
2013-07-18 07:11:00,76.5,70.0,30.06,West,270,0.0,0.0,80,0.00,,,0.00,WUHU21623XXSP,2013-07-18 11:11:00,
2013-07-18 07:16:00,76.9,70.4,30.06,West,270,0.0,0.0,80,0.00,,,0.00,WUHU21623XXSP,2013-07-18 11:16:00,
2013-07-18 07:21:00,76.9,70.4,30.07,WNW,292,0.0,0.0,80,0.00,,,0.00,WUHU21623XXSP,2013-07-18 11:21:00,
2013-07-18 07:26:00,77.2,70.7,30.07,NNE,22,0.0,0.0,80,0.00,,,0.00,WUHU21623XXSP,2013-07-18 11:26:00,
2013-07-18 07:31:00,77.2,70.7,30.07,North,0,0.0,0.0,80,0.00,,,0.00,WUHU21623XXSP,2013-07-18 11:31:00,
2013-07-18 07:36:00,77.6,71.0,30.07,WNW,292,0.0,0.0,80,0.00,,,0.00,WUHU21623XXSP,2013-07-18 11:36:00,
2013-07-18 07:41:00,77.8,71.2,30.07,WNW,292,0.0,0.0,80,0.00,,,0.00,WUHU21623XXSP,2013-07-18 11:41:00,
2013-07-18 07:46:00,78.1,71.5,30.08,WNW,292,0.0,0.0,80,0.00,,,0.00,WUHU21623XXSP,2013-07-18 11:46:00,
2013-07-18 07:51:00,78.3,71.7,30.08,WNW,292,0.0,0.0,80,0.00,,,0.00,WUHU21623XXSP,2013-07-18 11:51:00,
2013-07-18 07:56:00,78.7,72.1,30.08,WNW,292,0.0,0.0,80,0.00,,,0.00,WUHU21623XXSP,2013-07-18 11:56:00,
2013-07-18 08:01:00,79.0,72.4,30.08,WNW,292,0.0,0.0,80,0.00,,,0.00,WUHU21623XXSP,2013-07-18 12:01:00,
2013-07-18 08:06:00,79.0,72.1,30.08,WNW,292,0.0,0.0,79,0.00,,,0.00,WUHU21623XXSP,2013-07-18 12:06:00,
2013-07-18 08:11:00,79.4,72.4,30.07,WNW,292,0.0,0.0,79,0.00,,,0.00,WUHU21623XXSP,2013-07-18 12:11:00,
2013-07-18 08:16:00,79.6,72.6,30.08,WNW,292,0.0,0.0,79,0.00,,,0.00,WUHU21623XXSP,2013-07-18 12:16:00,
2013-07-18 08:21:00,79.9,72.6,30.08,WNW,292,0.0,0.0,78,0.00,,,0.00,WUHU21623XXSP,2013-07-18 12:21:00,
2013-07-18 08:26:00,80.1,72.8,30.08,WNW,292,0.0,0.0,78,0.00,,,0.00,WUHU21623XXSP,2013-07-18 12:26:00,
2013-07-18 08:31:00,80.5,73.1,30.08,WNW,292,0.0,0.0,78,0.00,,,0.00,WUHU21623XXSP,2013-07-18 12:31:00,
2013-07-18 08:36:00,80.8,73.1,30.08,WNW,292,0.0,0.0,77,0.00,,,0.00,WUHU21623XXSP,2013-07-18 12:36:00,
2013-07-18 08:41:00,81.0,73.3,30.08,WNW,292,0.0,0.0,77,0.00,,,0.00,WUHU21623XXSP,2013-07-18 12:41:00,
2013-07-18 08:46:00,81.4,73.3,30.08,WNW,292,0.0,0.0,76,0.00,,,0.00,WUHU21623XXSP,2013-07-18 12:46:00,
2013-07-18 08:51:00,81.7,73.6,30.08,WNW,292,0.0,0.0,76,0.00,,,0.00,WUHU21623XXSP,2013-07-18 12:51:00,
2013-07-18 08:56:00,81.9,73.8,30.08,WNW,292,0.0,0.0,76,0.00,,,0.00,WUHU21623XXSP,2013-07-18 12:56:00,
2013-07-18 09:01:00,82.3,74.2,30.09,WNW,292,0.0,0.0,76,0.00,,,0.00,WUHU21623XXSP,2013-07-18 13:01:00,
2013-07-18 09:06:00,82.6,74.1,30.09,WNW,292,0.0,0.0,75,0.00,,,0.00,WUHU21623XXSP,2013-07-18 13:06:00,
2013-07-18 09:11:00,82.8,73.9,30.09,WNW,292,0.0,0.0,74,0.00,,,0.00,WUHU21623XXSP,2013-07-18 13:11:00,
2013-07-18 09:16:00,83.0,74.1,30.09,WNW,292,0.0,0.0,74,0.00,,,0.00,WUHU21623XXSP,2013-07-18 13:16:00,
2013-07-18 09:21:00,83.5,74.5,30.09,WNW,292,0.0,0.0,74,0.00,,,0.00,WUHU21623XXSP,2013-07-18 13:21:00,
2013-07-18 09:26:00,83.7,74.7,30.09,WNW,292,0.0,0.0,74,0.00,,,0.00,WUHU21623XXSP,2013-07-18 13:26:00,
2013-07-18 09:32:00,83.9,74.5,30.09,WNW,292,0.0,0.0,73,0.00,,,0.00,WUHU21623XXSP,2013-07-18 13:32:00,
2013-07-18 09:37:00,84.3,74.9,30.09,NNW,337,0.0,0.0,73,0.00,,,0.00,WUHU21623XXSP,2013-07-18 13:37:00,
2013-07-18 09:42:00,84.4,75.0,30.08,NNW,337,0.0,0.0,73,0.00,,,0.00,WUHU21623XXSP,2013-07-18 13:42:00,
2013-07-18 09:47:00,84.6,74.8,30.08,NNW,337,0.0,0.0,72,0.00,,,0.00,WUHU21623XXSP,2013-07-18 13:47:00,
2013-07-18 09:52:00,85.0,75.2,30.09,NNW,337,0.0,0.0,72,0.00,,,0.00,WUHU21623XXSP,2013-07-18 13:52:00,
2013-07-18 09:57:00,85.2,75.4,30.09,ESE,112,0.0,0.0,72,0.00,,,0.00,WUHU21623XXSP,2013-07-18 13:57:00,
2013-07-18 10:02:00,85.5,75.3,30.09,ESE,112,0.0,0.0,71,0.00,,,0.00,WUHU21623XXSP,2013-07-18 14:02:00,
2013-07-18 10:07:00,85.7,75.5,30.09,ESE,112,0.0,0.0,71,0.00,,,0.00,WUHU21623XXSP,2013-07-18 14:07:00,
2013-07-18 10:12:00,85.9,75.6,30.08,ESE,112,0.0,0.0,71,0.00,,,0.00,WUHU21623XXSP,2013-07-18 14:12:00,
2013-07-18 10:17:00,86.2,75.9,30.08,NNE,22,0.0,0.0,71,0.00,,,0.00,WUHU21623XXSP,2013-07-18 14:17:00,
2013-07-18 10:22:00,86.2,75.9,30.08,NNE,22,0.0,0.0,71,0.00,,,0.00,WUHU21623XXSP,2013-07-18 14:22:00,
2013-07-18 10:27:00,86.6,75.9,30.08,East,90,0.0,0.0,70,0.00,,,0.00,WUHU21623XXSP,2013-07-18 14:27:00,
2013-07-18 10:32:00,86.8,75.7,30.08,ENE,67,0.0,0.0,69,0.00,,,0.00,WUHU21623XXSP,2013-07-18 14:32:00,
2013-07-18 10:37:00,87.0,75.9,30.08,East,90,0.0,0.0,69,0.00,,,0.00,WUHU21623XXSP,2013-07-18 14:37:00,
2013-07-18 10:42:00,87.3,75.7,30.08,SE,135,1.1,1.1,68,0.00,,,0.00,WUHU21623XXSP,2013-07-18 14:42:00,
2013-07-18 10:47:00,87.5,75.9,30.08,ESE,112,0.0,2.7,68,0.00,,,0.00,WUHU21623XXSP,2013-07-18 14:47:00,
2013-07-18 10:52:00,87.9,76.3,30.09,ESE,112,0.0,2.7,68,0.00,,,0.00,WUHU21623XXSP,2013-07-18 14:52:00,
2013-07-18 10:57:00,88.0,76.0,30.09,SSE,157,0.0,0.0,67,0.00,,,0.00,WUHU21623XXSP,2013-07-18 14:57:00,
2013-07-18 11:02:00,88.2,76.1,30.09,SE,135,0.0,0.0,67,0.00,,,0.00,WUHU21623XXSP,2013-07-18 15:02:00,
2013-07-18 11:07:00,88.6,76.5,30.09,SSE,157,0.0,0.0,67,0.00,,,0.00,WUHU21623XXSP,2013-07-18 15:07:00,
2013-07-18 11:12:00,88.8,76.7,30.09,East,90,0.0,0.0,67,0.00,,,0.00,WUHU21623XXSP,2013-07-18 15:12:00,
2013-07-18 11:17:00,88.9,76.8,30.08,SE,135,0.0,0.0,67,0.00,,,0.00,WUHU21623XXSP,2013-07-18 15:17:00,
2013-07-18 11:22:00,89.1,76.6,30.08,SE,135,0.0,0.0,66,0.00,,,0.00,WUHU21623XXSP,2013-07-18 15:22:00,
2013-07-18 11:27:00,89.3,76.7,30.08,SSE,157,0.0,0.0,66,0.00,,,0.00,WUHU21623XXSP,2013-07-18 15:27:00,
2013-07-18 11:32:00,89.5,76.9,30.08,SE,135,0.0,0.0,66,0.00,,,0.00,WUHU21623XXSP,2013-07-18 15:32:00,
2013-07-18 11:37:00,89.7,76.7,30.08,SE,135,0.0,0.0,65,0.00,,,0.00,WUHU21623XXSP,2013-07-18 15:37:00,
2013-07-18 11:42:00,89.7,76.7,30.08,East,90,0.0,0.0,65,0.00,,,0.00,WUHU21623XXSP,2013-07-18 15:42:00,
2013-07-18 11:47:00,90.0,77.0,30.08,ESE,112,0.0,2.0,65,0.00,,,0.00,WUHU21623XXSP,2013-07-18 15:47:00,
2013-07-18 11:52:00,90.2,77.1,30.08,ESE,112,0.0,2.0,65,0.00,,,0.00,WUHU21623XXSP,2013-07-18 15:52:00,
2013-07-18 11:57:00,90.4,77.3,30.08,SE,135,0.0,0.7,65,0.00,,,0.00,WUHU21623XXSP,2013-07-18 15:57:00,
2013-07-18 12:02:00,90.4,77.3,30.08,ENE,67,0.0,4.0,65,0.00,,,0.00,WUHU21623XXSP,2013-07-18 16:02:00,
2013-07-18 12:07:00,90.7,77.6,30.08,SSE,157,0.0,4.0,65,0.00,,,0.00,WUHU21623XXSP,2013-07-18 16:07:00,
2013-07-18 12:12:00,90.9,77.8,30.08,East,90,0.9,1.8,65,0.00,,,0.00,WUHU21623XXSP,2013-07-18 16:12:00,
2013-07-18 12:17:00,91.3,78.2,30.08,ENE,67,0.0,1.8,65,0.00,,,0.00,WUHU21623XXSP,2013-07-18 16:17:00,
2013-07-18 12:22:00,91.3,77.7,30.08,ESE,112,0.0,0.0,64,0.00,,,0.00,WUHU21623XXSP,2013-07-18 16:22:00,
2013-07-18 12:27:00,91.3,77.7,30.07,ESE,112,0.0,0.0,64,0.00,,,0.00,WUHU21623XXSP,2013-07-18 16:27:00,
2013-07-18 12:32:00,91.3,77.7,30.07,ENE,67,0.0,0.0,64,0.00,,,0.00,WUHU21623XXSP,2013-07-18 16:32:00,
2013-07-18 12:37:00,91.3,78.2,30.07,East,90,2.0,2.0,65,0.00,,,0.00,WUHU21623XXSP,2013-07-18 16:37:00,
2013-07-18 12:42:00,91.5,78.4,30.07,ESE,112,0.0,2.0,65,0.00,,,0.00,WUHU21623XXSP,2013-07-18 16:42:00,
2013-07-18 12:47:00,91.3,78.2,30.07,ESE,112,0.0,0.0,65,0.00,,,0.00,WUHU21623XXSP,2013-07-18 16:47:00,
2013-07-18 12:52:00,91.3,77.7,30.07,NE,45,0.0,0.0,64,0.00,,,0.00,WUHU21623XXSP,2013-07-18 16:52:00,
2013-07-18 12:57:00,91.3,77.7,30.07,NE,45,0.0,0.0,64,0.00,,,0.00,WUHU21623XXSP,2013-07-18 16:57:00,
2013-07-18 13:02:00,91.5,77.9,30.07,NE,45,0.0,0.0,64,0.00,,,0.00,WUHU21623XXSP,2013-07-18 17:02:00,
2013-07-18 13:07:00,91.5,77.4,30.07,WNW,292,0.0,0.0,63,0.00,,,0.00,WUHU21623XXSP,2013-07-18 17:07:00,
2013-07-18 13:12:00,91.3,77.3,30.07,WNW,292,0.0,0.0,63,0.00,,,0.00,WUHU21623XXSP,2013-07-18 17:12:00,
2013-07-18 13:17:00,91.3,77.3,30.06,WNW,292,0.0,0.0,63,0.00,,,0.00,WUHU21623XXSP,2013-07-18 17:17:00,
2013-07-18 13:22:00,91.5,77.4,30.06,WNW,292,0.0,0.0,63,0.00,,,0.00,WUHU21623XXSP,2013-07-18 17:22:00,
2013-07-18 13:27:00,91.5,77.4,30.06,South,180,0.0,0.0,63,0.00,,,0.00,WUHU21623XXSP,2013-07-18 17:27:00,
2013-07-18 13:32:00,91.5,77.4,30.06,WSW,247,0.0,0.0,63,0.00,,,0.00,WUHU21623XXSP,2013-07-18 17:32:00,
2013-07-18 13:37:00,91.5,77.4,30.06,WSW,247,0.0,0.0,63,0.00,,,0.00,WUHU21623XXSP,2013-07-18 17:37:00,
2013-07-18 13:42:00,91.3,76.8,30.06,WSW,247,0.0,0.0,62,0.00,,,0.00,WUHU21623XXSP,2013-07-18 17:42:00,
2013-07-18 13:47:00,91.5,77.0,30.06,WSW,247,0.0,0.0,62,0.00,,,0.00,WUHU21623XXSP,2013-07-18 17:47:00,
2013-07-18 13:52:00,91.5,77.4,30.06,SSW,202,0.0,0.0,63,0.00,,,0.00,WUHU21623XXSP,2013-07-18 17:52:00,
2013-07-18 13:57:00,91.6,77.5,30.06,South,180,0.0,0.0,63,0.00,,,0.00,WUHU21623XXSP,2013-07-18 17:57:00,
2013-07-18 14:02:00,91.8,77.7,30.05,South,180,0.0,0.0,63,0.00,,,0.00,WUHU21623XXSP,2013-07-18 18:02:00,
2013-07-18 14:07:00,91.8,77.7,30.05,South,180,0.0,0.0,63,0.00,,,0.00,WUHU21623XXSP,2013-07-18 18:07:00,
2013-07-18 14:12:00,91.6,78.0,30.05,South,180,0.0,0.0,64,0.00,,,0.00,WUHU21623XXSP,2013-07-18 18:12:00,
2013-07-18 14:17:00,91.3,77.7,30.05,South,180,0.0,0.0,64,0.00,,,0.00,WUHU21623XXSP,2013-07-18 18:17:00,
2013-07-18 14:22:00,91.3,78.2,30.05,South,180,0.0,0.0,65,0.00,,,0.00,WUHU21623XXSP,2013-07-18 18:22:00,
2013-07-18 14:27:00,91.5,78.4,30.04,SSE,157,0.0,0.0,65,0.00,,,0.00,WUHU21623XXSP,2013-07-18 18:27:00,
2013-07-18 14:32:00,91.6,78.5,30.04,SE,135,0.0,0.0,65,0.00,,,0.00,WUHU21623XXSP,2013-07-18 18:32:00,
2013-07-18 14:37:00,91.8,78.2,30.04,East,90,4.6,5.4,64,0.00,,,0.00,WUHU21623XXSP,2013-07-18 18:37:00,
2013-07-18 14:42:00,92.0,78.4,30.04,South,180,0.7,5.4,64,0.00,,,0.00,WUHU21623XXSP,2013-07-18 18:42:00,
2013-07-18 14:47:00,92.2,78.6,30.04,SE,135,0.0,3.1,64,0.00,,,0.00,WUHU21623XXSP,2013-07-18 18:47:00,
2013-07-18 14:52:00,92.7,78.6,30.04,East,90,0.0,3.1,63,0.00,,,0.00,WUHU21623XXSP,2013-07-18 18:52:00,
2013-07-18 14:57:00,93.3,79.2,30.04,ESE,112,3.8,3.8,63,0.00,,,0.00,WUHU21623XXSP,2013-07-18 18:57:00,
2013-07-18 15:02:00,93.6,78.9,30.04,SE,135,0.0,3.8,62,0.00,,,0.00,WUHU21623XXSP,2013-07-18 19:02:00,
2013-07-18 15:07:00,94.3,79.1,30.03,NE,45,0.0,0.0,61,0.00,,,0.00,WUHU21623XXSP,2013-07-18 19:07:00,
2013-07-18 15:12:00,94.3,78.6,30.03,SE,135,0.0,1.3,60,0.00,,,0.00,WUHU21623XXSP,2013-07-18 19:12:00,
2013-07-18 15:17:00,94.0,78.3,30.02,SSE,157,0.0,1.3,60,0.00,,,0.00,WUHU21623XXSP,2013-07-18 19:17:00,
2013-07-18 15:22:00,93.6,78.5,30.03,ESE,112,0.0,0.0,61,0.00,,,0.00,WUHU21623XXSP,2013-07-18 19:22:00,
2013-07-18 15:27:00,93.4,78.8,30.02,SE,135,6.5,6.9,62,0.00,,,0.00,WUHU21623XXSP,2013-07-18 19:27:00,
2013-07-18 15:32:00,93.1,78.5,30.02,SSW,192,2.2,6.9,62,0.00,,,0.00,WUHU21623XXSP,2013-07-18 19:32:00,
2013-07-18 15:37:00,92.9,78.3,30.02,SE,135,0.0,6.0,62,0.00,,,0.00,WUHU21623XXSP,2013-07-18 19:37:00,
2013-07-18 15:42:00,92.7,78.6,30.02,SSE,157,1.5,4.5,63,0.00,,,0.00,WUHU21623XXSP,2013-07-18 19:42:00,
2013-07-18 15:47:00,92.5,78.4,30.01,SSE,157,0.0,4.5,63,0.00,,,0.00,WUHU21623XXSP,2013-07-18 19:47:00,
2013-07-18 15:52:00,92.5,78.4,30.01,SE,146,4.0,7.6,63,0.00,,,0.00,WUHU21623XXSP,2013-07-18 19:52:00,
2013-07-18 15:57:00,92.2,78.1,30.01,SSE,157,0.0,7.6,63,0.00,,,0.00,WUHU21623XXSP,2013-07-18 19:57:00,
2013-07-18 16:02:00,92.2,78.1,30.01,SE,135,2.2,5.1,63,0.00,,,0.00,WUHU21623XXSP,2013-07-18 20:02:00,
2013-07-18 16:07:00,91.8,77.7,30.01,SSE,157,0.0,5.1,63,0.00,,,0.00,WUHU21623XXSP,2013-07-18 20:07:00,
2013-07-18 16:12:00,91.8,77.7,30.01,South,180,0.0,0.0,63,0.00,,,0.00,WUHU21623XXSP,2013-07-18 20:12:00,
2013-07-18 16:17:00,91.6,77.5,30.01,SSE,157,0.0,0.0,63,0.00,,,0.00,WUHU21623XXSP,2013-07-18 20:17:00,
2013-07-18 16:22:00,91.6,77.5,30.01,South,180,0.0,5.6,63,0.00,,,0.00,WUHU21623XXSP,2013-07-18 20:22:00,
2013-07-18 16:27:00,91.6,77.5,30.01,SE,124,3.4,5.6,63,0.00,,,0.00,WUHU21623XXSP,2013-07-18 20:27:00,
2013-07-18 16:32:00,91.6,77.5,30.01,SSW,193,2.1,4.7,63,0.00,,,0.00,WUHU21623XXSP,2013-07-18 20:32:00,
2013-07-18 16:37:00,91.6,77.5,30.00,SSE,157,0.0,5.1,63,0.00,,,0.00,WUHU21623XXSP,2013-07-18 20:37:00,
2013-07-18 16:42:00,91.6,78.0,30.00,East,91,3.5,6.7,64,0.00,,,0.00,WUHU21623XXSP,2013-07-18 20:42:00,
2013-07-18 16:47:00,91.6,78.0,30.00,ESE,122,4.6,7.6,64,0.00,,,0.00,WUHU21623XXSP,2013-07-18 20:47:00,
2013-07-18 16:52:00,92.0,78.4,30.00,SE,135,0.0,7.6,64,0.00,,,0.00,WUHU21623XXSP,2013-07-18 20:52:00,
2013-07-18 16:57:00,92.4,78.8,29.99,SE,138,4.4,7.8,64,0.00,,,0.00,WUHU21623XXSP,2013-07-18 20:57:00,
2013-07-18 17:02:00,92.5,78.4,30.00,South,180,2.3,7.8,63,0.00,,,0.00,WUHU21623XXSP,2013-07-18 21:02:00,
2013-07-18 17:07:00,92.7,78.6,30.00,SSE,167,0.8,6.0,63,0.00,,,0.00,WUHU21623XXSP,2013-07-18 21:07:00,
2013-07-18 17:12:00,93.4,79.2,30.00,SE,143,4.0,6.0,63,0.00,,,0.00,WUHU21623XXSP,2013-07-18 21:12:00,
2013-07-18 17:17:00,94.0,79.3,29.99,South,180,0.0,6.0,62,0.00,,,0.00,WUHU21623XXSP,2013-07-18 21:17:00,
2013-07-18 17:22:00,94.5,79.3,29.99,SE,135,3.6,5.6,61,0.00,,,0.00,WUHU21623XXSP,2013-07-18 21:22:00,
2013-07-18 17:27:00,95.2,80.0,29.99,East,99,5.5,6.9,61,0.00,,,0.00,WUHU21623XXSP,2013-07-18 21:27:00,
2013-07-18 17:32:00,95.8,80.0,29.99,SSE,155,4.0,6.9,60,0.00,,,0.00,WUHU21623XXSP,2013-07-18 21:32:00,
2013-07-18 17:37:00,96.3,80.0,29.99,SSE,150,2.4,6.5,59,0.00,,,0.00,WUHU21623XXSP,2013-07-18 21:37:00,
2013-07-18 17:42:00,96.3,80.0,29.99,South,180,0.0,2.9,59,0.00,,,0.00,WUHU21623XXSP,2013-07-18 21:42:00,
2013-07-18 17:47:00,95.8,79.5,29.99,South,180,5.4,5.4,59,0.00,,,0.00,WUHU21623XXSP,2013-07-18 21:47:00,
2013-07-18 17:52:00,95.2,78.9,29.99,SSE,157,0.0,5.4,59,0.00,,,0.00,WUHU21623XXSP,2013-07-18 21:52:00,
2013-07-18 17:57:00,94.5,78.8,29.99,SSE,157,0.0,0.0,60,0.00,,,0.00,WUHU21623XXSP,2013-07-18 21:57:00,
2013-07-18 18:02:00,94.3,79.1,29.99,SSE,157,0.0,0.0,61,0.00,,,0.00,WUHU21623XXSP,2013-07-18 22:02:00,
2013-07-18 18:07:00,93.6,78.5,29.99,SSE,157,0.0,0.0,61,0.00,,,0.00,WUHU21623XXSP,2013-07-18 22:07:00,
2013-07-18 18:12:00,93.3,78.7,29.99,SSE,167,2.3,4.9,62,0.00,,,0.00,WUHU21623XXSP,2013-07-18 22:12:00,
2013-07-18 18:17:00,92.9,78.3,29.99,SSE,157,2.5,4.9,62,0.00,,,0.00,WUHU21623XXSP,2013-07-18 22:17:00,
2013-07-18 18:22:00,92.7,78.6,29.99,SE,135,0.0,2.5,63,0.00,,,0.00,WUHU21623XXSP,2013-07-18 22:22:00,
2013-07-18 18:27:00,92.5,78.4,29.99,SE,135,0.0,1.1,63,0.00,,,0.00,WUHU21623XXSP,2013-07-18 22:27:00,
2013-07-18 18:32:00,92.4,78.8,29.99,SE,135,0.0,0.0,64,0.00,,,0.00,WUHU21623XXSP,2013-07-18 22:32:00,
2013-07-18 18:37:00,92.2,78.6,29.98,SSE,157,0.0,0.0,64,0.00,,,0.00,WUHU21623XXSP,2013-07-18 22:37:00,
2013-07-18 18:42:00,91.8,78.2,29.99,SSE,157,0.0,0.0,64,0.00,,,0.00,WUHU21623XXSP,2013-07-18 22:42:00,
2013-07-18 18:47:00,91.6,78.0,29.99,SSE,157,0.0,0.0,64,0.00,,,0.00,WUHU21623XXSP,2013-07-18 22:47:00,
2013-07-18 18:52:00,91.3,78.2,30.00,SSE,157,0.0,0.0,65,0.00,,,0.00,WUHU21623XXSP,2013-07-18 22:52:00,
2013-07-18 18:57:00,91.1,78.0,30.00,SSE,157,0.0,0.0,65,0.00,,,0.00,WUHU21623XXSP,2013-07-18 22:57:00,
2013-07-18 19:02:00,90.9,77.8,30.00,SSE,157,0.0,0.0,65,0.00,,,0.00,WUHU21623XXSP,2013-07-18 23:02:00,
2013-07-18 19:07:00,90.7,78.1,30.00,SE,135,0.0,0.0,66,0.00,,,0.00,WUHU21623XXSP,2013-07-18 23:07:00,
2013-07-18 19:13:00,90.4,77.8,30.00,SE,135,0.0,0.0,66,0.00,,,0.00,WUHU21623XXSP,2013-07-18 23:13:00,
2013-07-18 19:18:00,90.2,77.6,30.00,SE,135,0.0,0.0,66,0.00,,,0.00,WUHU21623XXSP,2013-07-18 23:18:00,
2013-07-18 19:23:00,89.8,77.2,30.00,SE,135,0.0,0.0,66,0.00,,,0.00,WUHU21623XXSP,2013-07-18 23:23:00,
2013-07-18 19:28:00,89.7,77.1,30.00,SE,135,0.0,0.0,66,0.00,,,0.00,WUHU21623XXSP,2013-07-18 23:28:00,
2013-07-18 19:33:00,89.3,76.7,30.00,SE,135,0.0,0.0,66,0.00,,,0.00,WUHU21623XXSP,2013-07-18 23:33:00,
2013-07-18 19:38:00,88.9,76.4,30.01,SE,135,0.0,0.0,66,0.00,,,0.00,WUHU21623XXSP,2013-07-18 23:38:00,
2013-07-18 19:43:00,88.6,76.5,30.01,SE,135,0.0,0.0,67,0.00,,,0.00,WUHU21623XXSP,2013-07-18 23:43:00,
2013-07-18 19:48:00,88.4,76.3,30.01,SE,135,0.0,0.0,67,0.00,,,0.00,WUHU21623XXSP,2013-07-18 23:48:00,
2013-07-18 19:53:00,88.0,76.0,30.01,SE,135,0.0,0.0,67,0.00,,,0.00,WUHU21623XXSP,2013-07-18 23:53:00,
2013-07-18 19:57:00,87.7,76.1,30.00,SE,135,0.0,0.0,68,0.00,,,0.00,WUHU21623XXSP,2013-07-18 23:57:00,
2013-07-18 20:02:00,87.3,75.7,30.01,SE,135,0.0,0.0,68,0.00,,,0.00,WUHU21623XXSP,2013-07-19 00:02:00,
2013-07-18 20:07:00,87.1,76.0,30.01,SE,135,0.0,0.0,69,0.00,,,0.00,WUHU21623XXSP,2013-07-19 00:07:00,
2013-07-18 20:12:00,87.0,75.9,30.01,SE,135,0.0,0.0,69,0.00,,,0.00,WUHU21623XXSP,2013-07-19 00:12:00,
2013-07-18 20:17:00,86.6,75.5,30.01,SE,135,0.0,0.0,69,0.00,,,0.00,WUHU21623XXSP,2013-07-19 00:17:00,
2013-07-18 20:22:00,86.4,75.3,30.01,SE,135,0.0,0.0,69,0.00,,,0.00,WUHU21623XXSP,2013-07-19 00:22:00,
2013-07-18 20:27:00,86.2,75.5,30.01,SE,135,0.0,0.0,70,0.00,,,0.00,WUHU21623XXSP,2013-07-19 00:27:00,
2013-07-18 20:32:00,85.9,75.2,30.01,SE,135,0.0,0.0,70,0.00,,,0.00,WUHU21623XXSP,2013-07-19 00:32:00,
2013-07-18 20:37:00,85.7,75.0,30.01,SE,135,0.0,0.0,70,0.00,,,0.00,WUHU21623XXSP,2013-07-19 00:37:00,
2013-07-18 20:42:00,85.5,74.8,30.01,SE,135,0.0,0.0,70,0.00,,,0.00,WUHU21623XXSP,2013-07-19 00:42:00,
2013-07-18 20:47:00,85.3,74.7,30.01,SE,135,0.0,0.0,70,0.00,,,0.00,WUHU21623XXSP,2013-07-19 00:47:00,
2013-07-18 20:52:00,85.0,74.4,30.00,SE,135,0.0,0.0,70,0.00,,,0.00,WUHU21623XXSP,2013-07-19 00:52:00,
2013-07-18 20:57:00,85.0,74.8,30.01,SE,135,0.0,0.0,71,0.00,,,0.00,WUHU21623XXSP,2013-07-19 00:57:00,
2013-07-18 21:02:00,84.6,74.4,30.01,SE,135,0.0,0.0,71,0.00,,,0.00,WUHU21623XXSP,2013-07-19 01:02:00,
2013-07-18 21:07:00,84.6,74.4,30.01,SE,135,0.0,0.0,71,0.00,,,0.00,WUHU21623XXSP,2013-07-19 01:07:00,
2013-07-18 21:12:00,84.4,74.6,30.01,SE,135,0.0,0.0,72,0.00,,,0.00,WUHU21623XXSP,2013-07-19 01:12:00,
2013-07-18 21:17:00,84.3,74.5,30.01,SE,135,0.0,0.0,72,0.00,,,0.00,WUHU21623XXSP,2013-07-19 01:17:00,
2013-07-18 21:22:00,84.1,74.3,30.01,SE,135,0.0,0.0,72,0.00,,,0.00,WUHU21623XXSP,2013-07-19 01:22:00,
2013-07-18 21:27:00,83.7,74.3,30.01,SE,135,0.0,0.0,73,0.00,,,0.00,WUHU21623XXSP,2013-07-19 01:27:00,
2013-07-18 21:32:00,83.7,74.3,30.01,SE,135,0.0,0.0,73,0.00,,,0.00,WUHU21623XXSP,2013-07-19 01:32:00,
2013-07-18 21:37:00,83.7,74.3,30.01,SE,135,0.0,0.0,73,0.00,,,0.00,WUHU21623XXSP,2013-07-19 01:37:00,
2013-07-18 21:42:00,83.5,74.1,30.01,SE,135,0.0,0.0,73,0.00,,,0.00,WUHU21623XXSP,2013-07-19 01:42:00,
2013-07-18 21:47:00,83.4,74.4,30.01,SE,135,0.0,0.0,74,0.00,,,0.00,WUHU21623XXSP,2013-07-19 01:47:00,
2013-07-18 21:52:00,83.2,74.3,30.01,SE,135,0.0,0.0,74,0.00,,,0.00,WUHU21623XXSP,2013-07-19 01:52:00,
2013-07-18 21:57:00,83.2,74.3,30.01,SE,135,0.0,0.0,74,0.00,,,0.00,WUHU21623XXSP,2013-07-19 01:57:00,
2013-07-18 22:02:00,83.0,74.1,30.01,SE,135,0.0,0.0,74,0.00,,,0.00,WUHU21623XXSP,2013-07-19 02:02:00,
2013-07-18 22:07:00,82.8,73.9,30.01,SE,135,0.0,0.0,74,0.00,,,0.00,WUHU21623XXSP,2013-07-19 02:07:00,
2013-07-18 22:12:00,82.8,74.3,30.01,SE,135,0.0,0.0,75,0.00,,,0.00,WUHU21623XXSP,2013-07-19 02:12:00,
2013-07-18 22:17:00,82.6,74.1,30.01,SE,135,0.0,0.0,75,0.00,,,0.00,WUHU21623XXSP,2013-07-19 02:17:00,
2013-07-18 22:22:00,82.5,74.0,30.01,SE,135,0.0,0.0,75,0.00,,,0.00,WUHU21623XXSP,2013-07-19 02:22:00,
2013-07-18 22:27:00,82.5,74.0,30.01,SE,135,0.0,0.0,75,0.00,,,0.00,WUHU21623XXSP,2013-07-19 02:27:00,
2013-07-18 22:32:00,82.3,73.8,30.00,SE,135,0.0,0.0,75,0.00,,,0.00,WUHU21623XXSP,2013-07-19 02:32:00,
2013-07-18 22:37:00,82.3,74.2,30.01,SE,135,0.0,0.0,76,0.00,,,0.00,WUHU21623XXSP,2013-07-19 02:37:00,
2013-07-18 22:42:00,82.1,74.0,30.01,SE,135,0.0,0.0,76,0.00,,,0.00,WUHU21623XXSP,2013-07-19 02:42:00,
2013-07-18 22:47:00,81.9,73.8,30.01,SE,135,0.0,0.0,76,0.00,,,0.00,WUHU21623XXSP,2013-07-19 02:47:00,
2013-07-18 22:52:00,81.9,73.8,30.00,SE,135,0.0,0.0,76,0.00,,,0.00,WUHU21623XXSP,2013-07-19 02:52:00,
2013-07-18 22:57:00,81.7,73.6,30.00,SE,135,0.0,0.0,76,0.00,,,0.00,WUHU21623XXSP,2013-07-19 02:57:00,
2013-07-18 23:02:00,81.7,73.6,30.00,SE,135,0.0,0.0,76,0.00,,,0.00,WUHU21623XXSP,2013-07-19 03:02:00,
2013-07-18 23:07:00,81.7,73.6,30.00,SE,135,0.0,0.0,76,0.00,,,0.00,WUHU21623XXSP,2013-07-19 03:07:00,
2013-07-18 23:12:00,81.6,73.5,30.00,SE,135,0.0,0.0,76,0.00,,,0.00,WUHU21623XXSP,2013-07-19 03:12:00,
2013-07-18 23:17:00,81.4,73.3,30.00,SE,135,0.0,0.0,76,0.00,,,0.00,WUHU21623XXSP,2013-07-19 03:17:00,
2013-07-18 23:22:00,81.4,73.7,30.00,SE,135,0.0,0.0,77,0.00,,,0.00,WUHU21623XXSP,2013-07-19 03:22:00,
2013-07-18 23:27:00,81.2,73.5,30.00,SE,135,0.0,0.0,77,0.00,,,0.00,WUHU21623XXSP,2013-07-19 03:27:00,
2013-07-18 23:32:00,81.2,73.5,30.01,SE,135,0.0,0.0,77,0.00,,,0.00,WUHU21623XXSP,2013-07-19 03:32:00,
2013-07-18 23:37:00,81.0,73.3,30.00,SE,135,0.0,0.0,77,0.00,,,0.00,WUHU21623XXSP,2013-07-19 03:37:00,
2013-07-18 23:42:00,81.0,73.3,30.00,SE,135,0.0,0.0,77,0.00,,,0.00,WUHU21623XXSP,2013-07-19 03:42:00,
2013-07-18 23:47:00,81.0,73.3,30.00,SE,135,0.0,0.0,77,0.00,,,0.00,WUHU21623XXSP,2013-07-19 03:47:00,
2013-07-18 23:52:00,81.0,73.3,30.00,East,90,0.0,0.0,77,0.00,,,0.00,WUHU21623XXSP,2013-07-19 03:52:00,
2013-07-18 23:57:00,80.8,73.1,30.00,East,90,0.0,0.0,77,0.00,,,0.00,WUHU21623XXSP,2013-07-19 03:57:00,